Zurück zum Katalog

STARLINK-4528

AktivKommunikationVLEO
NORAD 53399·PAYLOAD·🇺🇸 United States

Gestartet Aug 10, 2022 von Cape Canaveral Space Force Station

Loading…

Nächste Überflüge (nächste 24 Stunden)

TLE

AktuellSource: CelesTrak SupGP

Epoche: Sep 15, 2026, 01:57 UTC

1 53399C 22097M   26258.08173611  .00035451  00000+0  10476-2 0  2584
2 53399  53.1604 346.7241 0001163  89.8085  99.4096 15.34366209    13

Verfolge STARLINK-4528 in Echtzeit mit AllMySat

Download on the App Store